Location: Newark
(48.1500°N, 2.9667°W)
Time: 05:08:26
(UTC+00:00)

Altair - Pass Details

Date: 27 January 2020
Orbit: 1502 x 1682 km, 47.2° (Epoch: 18 February)

Event Time Altitude Azimuth Distance (km) Brightness Sun altitude
Rises 15:12:16 0° 291° (WNW) 4,939 10.4 13.6°
Reaches altitude 10° 15:15:56 10° 282° (WNW) 3,940 10.1 13.2°
Maximum altitude 15:24:14 30° 226° (SW) 2,630 10.5 12.2°
Drops below altitude 10° 15:32:21 10° 170° (S) 3,841 10.2 11.3°
Sets 15:35:54 0° 160° (SSE) 4,797 10.4 10.9°
